Location: Bottenau
(48.5138°N, 8.0462°E)
Time: 20:28:19
(UTC+00:00)

SL-8 R/B - Pass Details

Date: 18 April 2021
Orbit: 657 x 667 km, 48.4° (Epoch: 18 May)

Event Time Altitude Azimuth Distance (km) Brightness Sun altitude
Rises 19:38:43 0° 283° (WNW) 3,006 8.6 -12.0°
Reaches altitude 10° 19:41:06 10° 280° (W) 2,091 7.4 -12.4°
Maximum altitude 19:45:51 58° 202° (SSW) 778 4.0 -13.0°
Enters shadow 19:48:58 21° 129° (SE) 1,500 4.9 -13.5°
